Weather in Parghelia

Italy     38°40′57″N   15°55′14″E
temp.,
°C
wind,
m/s
gust,
m/s
humid.,
%
clouds,
%
prec.,
mm/h
press.,
hPa
HPBL,
m
19 september, sun
sun1923:00+26sse12615 0.0 101317
02:00+26ne335817 0.0 101346
05:00+25sse335858 0.1 101362
08:00+25nne22594 0.1 101390
11:00+27wnw225232 0.0 1014264
14:00+27nnw34630 0.0 1014363
17:00+26nw23620 0.0 1014319
20:00+25sw33740 0.0 1014189
20 september, mon
mon2023:00+24wsw578621 0.0 1015550
02:00+24w568531 0.3 1015614
05:00+24wnw448327 0.4 1015551
08:00+24wnw338011 0.5 1016586
11:00+24wnw45755 0.0 1017738
14:00+24nw4473100 0.0 1016631
17:00+24nnw4474100 0.0 1016739
20:00+23nnw4476100 0.0 1017685
21 september, tue
tue2123:00+23nnw44675 0.0 1019725
02:00+23nnw3465100 0.0 1020750
05:00+22e2265100 0.0 1016412
08:00+23nw346660 0.0 1019625
11:00+24n326134 0.0 1020540
14:00+24n336458 0.0 1019422
17:00+24nne336021 0.0 1018384
20:00+23ne336341 0.0 1019273
22 september, wed
wed2223:00+23e226699 0.0 1019175
02:00+23e2268100 0.0 1018172
05:00+23se226590 0.0 1018193
08:00+23ese226378 0.0 1018205
11:00+25w115572 0.0 1018262
14:00+24nnw446399 0.0 1017376
17:00+25n326581 0.0 1016299
20:00+24n1167100 0.0 1015225
23 september, thu
thu2323:00+23nne116755 0.0 1016336
02:00+23ssw016958 0.0 1015325
05:00+22sse227510 0.0 1015209
08:00+22sse22764 0.0 1015204
11:00+23wnw23682 0.0 1016530
14:00+24nw33680 0.0 1015487
17:00+24nnw23680 0.0 1015386
20:00+23ene11711 0.0 1016244